Location: Vesunti
(61.5000°N, 22.8333°E)
Time: 17:36:18
(UTC+00:00)

Cosmos 2251 Rocket - Pass Details

Date: 17 February 2020
Orbit: 764 x 793 km, 74.0° (Epoch: 28 March)

Event Time Altitude Azimuth Distance (km) Brightness Sun altitude
Exits shadow 04:01:08 - 214° (SW) 2,435 5.7 -15.6°
Reaches altitude 10° 04:01:27 10° 214° (SW) 2,317 5.6 -15.6°
Maximum altitude 04:06:43 87° 302° (WNW) 787 3.5 -15.0°
Drops below altitude 10° 04:12:05 10° 34° (NE) 2,349 6.5 -14.3°
Sets 04:14:30 0° 35° (NE) 3,286 7.3 -14.0°
